Hourly Weather Daman and Diu

Today, 6 May, Thursday

Time Temperature Precipitation Wind Pressure Humidity
00:00 +32°C° 0 mm 4 mps 754 mmHg 67%
01:00 +31°C° 0 mm 3 mps 754 mmHg 67%
02:00 +31°C° 0 mm 3 mps 754 mmHg 67%
03:00 +30°C° 0 mm 3 mps 754 mmHg 68%
04:00 +30°C° 0 mm 2 mps 754 mmHg 70%
05:00 +30°C° 0 mm 2 mps 754 mmHg 71%
06:00 +31°C° 0 mm 2 mps 755 mmHg 67%
07:00 +32°C° 0 mm 2 mps 756 mmHg 62%
08:00 +34°C° 0 mm 2 mps 756 mmHg 58%
09:00 +35°C° 0 mm 2 mps 756 mmHg 52%
10:00 +37°C° 0 mm 3 mps 756 mmHg 45%
11:00 +38°C° 0 mm 3 mps 756 mmHg 39%
12:00 +39°C° 0 mm 3 mps 755 mmHg 37%
13:00 +40°C° 0 mm 4 mps 755 mmHg 35%
14:00 +41°C° 0 mm 4 mps 754 mmHg 33%
15:00 +40°C° 0 mm 4 mps 754 mmHg 33%
16:00 +38°C° 0 mm 4 mps 754 mmHg 34%
17:00 +39°C° 0 mm 5 mps 753 mmHg 34%
18:00 +36°C° 0 mm 5 mps 754 mmHg 43%
19:00 +35°C° 0 mm 5 mps 754 mmHg 52%
20:00 +34°C° 0 mm 5 mps 755 mmHg 60%
21:00 +33°C° 0 mm 5 mps 755 mmHg 62%
22:00 +33°C° 0 mm 5 mps 755 mmHg 65%
23:00 +33°C° 0 mm 4 mps 756 mmHg 67%

Tomorrow, 7 May, Friday

Time Temperature Precipitation Wind Pressure Humidity
00:00 +32°C° 0 mm 4 mps 755 mmHg 67%
01:00 +32°C° 0 mm 4 mps 755 mmHg 66%
02:00 +32°C° 0 mm 4 mps 755 mmHg 66%
03:00 +31°C° 0 mm 3 mps 755 mmHg 67%
04:00 +30°C° 0 mm 3 mps 756 mmHg 68%
05:00 +30°C° 0 mm 3 mps 756 mmHg 69%
06:00 +31°C° 0 mm 3 mps 757 mmHg 64%
07:00 +33°C° 0 mm 3 mps 757 mmHg 60%
08:00 +34°C° 0 mm 3 mps 758 mmHg 56%
09:00 +35°C° 0 mm 3 mps 758 mmHg 51%
10:00 +37°C° 0 mm 4 mps 757 mmHg 47%
11:00 +38°C° 0 mm 4 mps 757 mmHg 43%
12:00 +38°C° 0 mm 4 mps 757 mmHg 43%
13:00 +39°C° 0 mm 5 mps 756 mmHg 43%
14:00 +39°C° 0 mm 5 mps 755 mmHg 44%
15:00 +37°C° 0 mm 5 mps 755 mmHg 45%
16:00 +37°C° 0 mm 5 mps 755 mmHg 46%
17:00 +36°C° 0 mm 5 mps 754 mmHg 47%
18:00 +35°C° 0 mm 5 mps 755 mmHg 53%
19:00 +34°C° 0 mm 5 mps 755 mmHg 60%
20:00 +33°C° 0 mm 5 mps 755 mmHg 66%
21:00 +33°C° 0 mm 5 mps 756 mmHg 67%
22:00 +32°C° 0 mm 4 mps 756 mmHg 68%
23:00 +32°C° 0 mm 4 mps 756 mmHg 69%

Day after tomorrow, 8 May, Saturday

Time Temperature Precipitation Wind Pressure Humidity
00:00 +32°C° 0 mm 4 mps 756 mmHg 69%
01:00 +31°C° 0 mm 3 mps 756 mmHg 70%
02:00 +31°C° 0 mm 3 mps 755 mmHg 71%
03:00 +30°C° 0 mm 3 mps 755 mmHg 71%
04:00 +30°C° 0 mm 3 mps 756 mmHg 72%
05:00 +30°C° 0 mm 2 mps 756 mmHg 72%
06:00 +31°C° 0 mm 2 mps 756 mmHg 68%
07:00 +32°C° 0 mm 2 mps 756 mmHg 63%
08:00 +34°C° 0 mm 2 mps 757 mmHg 58%
09:00 +35°C° 0 mm 2 mps 757 mmHg 53%
10:00 +37°C° 0 mm 3 mps 756 mmHg 48%
11:00 +38°C° 0 mm 3 mps 756 mmHg 43%
12:00 +38°C° 0 mm 4 mps 756 mmHg 42%
13:00 +38°C° 0 mm 4 mps 755 mmHg 42%
14:00 +39°C° 0 mm 5 mps 754 mmHg 41%
15:00 +39°C° 0 mm 5 mps 754 mmHg 41%
16:00 +37°C° 0 mm 5 mps 753 mmHg 41%
17:00 +37°C° 0 mm 5 mps 753 mmHg 41%
18:00 +36°C° 0 mm 5 mps 753 mmHg 50%
19:00 +34°C° 0 mm 5 mps 754 mmHg 58%
20:00 +33°C° 0 mm 5 mps 754 mmHg 66%
21:00 +33°C° 0 mm 5 mps 754 mmHg 67%
22:00 +33°C° 0 mm 4 mps 755 mmHg 68%
23:00 +32°C° 0 mm 4 mps 755 mmHg 69%

9 May, Sunday

Time Temperature Precipitation Wind Pressure Humidity
00:00 +32°C° 0 mm 4 mps 755 mmHg 70%
01:00 +31°C° 0 mm 3 mps 754 mmHg 70%
02:00 +31°C° 0 mm 3 mps 754 mmHg 71%
03:00 +30°C° 0 mm 3 mps 754 mmHg 72%
04:00 +30°C° 0 mm 3 mps 754 mmHg 73%
05:00 +30°C° 0 mm 3 mps 755 mmHg 73%
06:00 +31°C° 0 mm 2 mps 755 mmHg 68%
07:00 +32°C° 0 mm 2 mps 756 mmHg 63%
08:00 +34°C° 0 mm 2 mps 756 mmHg 59%
09:00 +35°C° 0 mm 3 mps 756 mmHg 54%
10:00 +37°C° 0 mm 3 mps 756 mmHg 49%
11:00 +38°C° 0 mm 4 mps 756 mmHg 44%
12:00 +38°C° 0 mm 4 mps 755 mmHg 44%
13:00 +39°C° 0 mm 5 mps 755 mmHg 44%
14:00 +39°C° 0 mm 5 mps 754 mmHg 44%
15:00 +37°C° 0 mm 5 mps 754 mmHg 46%
16:00 +36°C° 0 mm 5 mps 754 mmHg 48%
17:00 +36°C° 0 mm 5 mps 753 mmHg 50%
18:00 +35°C° 0 mm 5 mps 754 mmHg 56%
19:00 +34°C° 0 mm 5 mps 754 mmHg 61%
20:00 +33°C° 0 mm 5 mps 754 mmHg 66%
21:00 +33°C° 0 mm 5 mps 755 mmHg 67%
22:00 +33°C° 0 mm 5 mps 755 mmHg 68%
23:00 +32°C° 0 mm 4 mps 755 mmHg 68%

10 May, Monday

Time Temperature Precipitation Wind Pressure Humidity
00:00 +32°C° 0 mm 4 mps 755 mmHg 69%
01:00 +32°C° 0 mm 4 mps 754 mmHg 70%
02:00 +32°C° 0 mm 4 mps 754 mmHg 71%
03:00 +30°C° 0 mm 4 mps 754 mmHg 72%
04:00 +30°C° 0 mm 3 mps 754 mmHg 72%
05:00 +30°C° 0 mm 3 mps 755 mmHg 73%
06:00 +31°C° 0 mm 3 mps 755 mmHg 68%
07:00 +33°C° 0 mm 3 mps 755 mmHg 63%
08:00 +34°C° 0 mm 3 mps 756 mmHg 59%
09:00 +35°C° 0 mm 4 mps 756 mmHg 54%
10:00 +36°C° 0 mm 4 mps 756 mmHg 49%
11:00 +37°C° 0 mm 5 mps 756 mmHg 45%
12:00 +37°C° 0 mm 5 mps 755 mmHg 45%
13:00 +37°C° 0 mm 5 mps 754 mmHg 45%
14:00 +38°C° 0 mm 6 mps 754 mmHg 45%
15:00 +36°C° 0 mm 6 mps 754 mmHg 47%
16:00 +36°C° 0 mm 6 mps 753 mmHg 48%
17:00 +35°C° 0 mm 6 mps 753 mmHg 49%
18:00 +34°C° 0 mm 6 mps 753 mmHg 55%
19:00 +33°C° 0 mm 6 mps 754 mmHg 60%
20:00 +32°C° 0 mm 6 mps 754 mmHg 65%
21:00 +32°C° 0 mm 6 mps 754 mmHg 66%
22:00 +32°C° 0 mm 6 mps 754 mmHg 67%
23:00 +32°C° 0 mm 6 mps 754 mmHg 68%

11 May, Tuesday

Time Temperature Precipitation Wind Pressure Humidity
00:00 +32°C° 0 mm 6 mps 754 mmHg 69%
01:00 +30°C° 0 mm 5 mps 754 mmHg 70%
02:00 +30°C° 0 mm 5 mps 754 mmHg 71%
03:00 +30°C° 0 mm 5 mps 754 mmHg 71%
04:00 +30°C° 0 mm 4 mps 754 mmHg 71%
05:00 +30°C° 0 mm 4 mps 754 mmHg 71%
06:00 +32°C° 0 mm 4 mps 754 mmHg 66%
07:00 +33°C° 0 mm 4 mps 755 mmHg 60%
08:00 +34°C° 0 mm 4 mps 755 mmHg 55%
09:00 +35°C° 0 mm 5 mps 755 mmHg 52%
10:00 +36°C° 0 mm 5 mps 755 mmHg 49%
11:00 +36°C° 0 mm 5 mps 755 mmHg 46%
12:00 +38°C° 0 mm 6 mps 755 mmHg 46%
13:00 +38°C° 0 mm 6 mps 754 mmHg 46%
14:00 +38°C° 0 mm 6 mps 753 mmHg 46%
15:00 +36°C° 0 mm 6 mps 753 mmHg 48%
16:00 +36°C° 0 mm 7 mps 753 mmHg 51%
17:00 +35°C° 0 mm 7 mps 753 mmHg 53%
18:00 +34°C° 0 mm 7 mps 753 mmHg 58%
19:00 +33°C° 0 mm 7 mps 753 mmHg 62%
20:00 +33°C° 0 mm 7 mps 754 mmHg 67%
21:00 +32°C° 0 mm 6 mps 754 mmHg 68%
22:00 +32°C° 0 mm 6 mps 754 mmHg 69%
23:00 +32°C° 0 mm 6 mps 754 mmHg 70%
Show more